Aérodrome :
LOGIN :

S'inscrire | Disclaimer

   EN    FR    IT 

 










Légende :    VFR   VFR Marginal   IFR   IFR Intensif   IFR Très Intensif
Visi : 
Plafond : 
>= 8 km
>= 3000ft
5 à 8 km
1000 à 3000 ft
1500m à 5 km
500 à 1000 ft
800 à 1500m
200 à 500 ft
< 800m
< 200 ft
Symboles :   Orages  Brouillard  Fortes neiges  Fortes précipitations  Vent > 20 kt
SIGMETs :   Divers  Orages  Givrage  Turbulence  Onde Orograph.  Cendres Volcan.







- Altitude de l'aérodrome : 461 ft
- Code IATA : WIE


ETOU - Wiesbaden Army

DERNIER METAR :
  • 210255Z 00000KT 9999 CLR 01/M02 A3055 RMK A02A SLP352 T00131016 58002 $

METARs EXPIRÉS :
  • 210153Z 00000KT 9999 CLR 02/M02 A3055 RMK A02A SLP352 T00221016 $
  • 210053Z 00000KT 9999 CLR 03/M01 A3056 RMK A02A SLP355 T00291013 $

TAF TAF ETOU
Valide du 20 à 20h jusqu'au 22 à 02h UTC


202000Z 2020/2202 VRB06KT 9999 SKC QNH3047INS TX13/2115Z TNM01/2102Z
Pas de NOTAMs connus pour ce terrain.



MET'MAP, la Météo Aéronautique d'un coup d'oeil ! - Copyright ORBIFLY Décembre 2007 - Disclaimer

ORBIFLY MET'MAP TEAM :

Programmation & Développement : Alexandra Zaïnal
Conception & Développement : Baudouin d'Aumeries
Co-Programmation & Développement : Marc-Olivier Méhu
Soutien technique & logistique : Manuel Goepfert

Contact : metmap@orbifly.com




SOURCES & CREDITS :

   NOAA